Wind_Speed
65 64 64 63 62 61 61 60 59 58 58 57 56 56 55 54 52 50 49 47 45 43 41 39 36 34 33 32 30 28 25 23 22 22 21 20 20 20 21 22 23 25 25
68 67 65 64 63 62 62 63 63 63 63 62 62 61 59 58 57 55 53 51 49 47 45 43 40 37 35 33 31 29 27 24 22 21 21 20 20 20 21 23 24 26 26
64 62 60 57 55 54 55 56 58 61 63 65 66 65 65 63 62 59 58 55 53 51 48 46 43 40 37 35 33 31 29 26 23 22 21 20 21 20 21 22 24 25 25
56 54 51 48 46 44 43 44 46 50 54 60 64 67 68 68 67 64 62 59 56 54 51 48 46 43 40 37 35 32 30 27 24 23 21 21 21 21 21 21 22 23 24
51 50 48 46 44 42 40 39 39 40 43 47 51 57 63 67 68 68 66 64 60 57 53 50 48 45 42 39 36 34 31 29 26 24 22 21 20 20 20 20 20 21 22
52 51 50 48 46 43 41 39 38 38 39 40 42 44 49 55 61 65 66 66 63 60 56 53 50 47 45 41 39 36 33 30 27 25 23 22 21 21 19 19 19 19 20
55 54 53 51 49 47 45 42 41 40 40 39 38 38 40 43 47 52 58 62 63 61 58 55 52 49 46 43 40 37 34 31 28 25 23 21 20 20 19 19 19 19 19
56 55 54 52 50 49 47 45 43 40 38 38 38 37 36 37 40 42 46 52 57 59 59 57 54 51 48 44 41 38 35 32 29 25 23 21 20 20 20 19 20 19 19
55 54 52 51 50 49 47 45 43 42 40 39 38 37 37 36 36 37 39 43 48 53 56 56 55 53 50 46 42 38 35 32 29 26 23 21 20 19 19 19 19 19 19
51 50 50 49 48 47 46 45 43 42 41 39 38 37 37 36 36 36 35 37 41 47 51 54 54 53 51 47 44 40 35 32 29 26 23 21 20 20 19 19 19 19 18
48 46 44 43 43 43 43 43 43 42 41 39 39 38 37 36 35 34 34 33 36 40 46 51 52 52 51 48 45 41 37 33 29 26 23 21 20 20 20 19 19 18 18
44 41 39 37 37 38 38 39 40 39 39 38 38 37 36 35 34 33 32 31 32 36 41 47 49 49 48 48 45 42 38 34 30 27 24 22 20 19 19 19 18 18 18
38 35 32 30 29 30 31 33 35 35 35 35 35 34 33 33 32 32 30 29 30 33 39 45 47 46 47 47 45 41 38 33 29 26 24 22 20 19 19 19 18 18 19
34 30 27 24 23 22 23 25 27 28 29 29 30 30 30 30 30 30 29 29 29 33 40 44 46 46 46 45 43 41 38 33 29 27 24 21 20 19 19 19 19 19 19
31 26 22 18 16 15 15 17 19 21 24 25 25 25 26 27 27 27 27 28 30 34 41 46 47 48 47 45 42 40 36 32 28 26 23 21 20 20 20 20 20 19 19
30 25 19 14 9 6 7 9 13 16 19 21 22 23 23 24 25 25 25 27 30 34 43 47 47 49 47 44 40 36 33 30 27 25 23 22 21 21 20 20 20 19 19
30 26 20 14 8 3 1 5 8 12 15 17 19 20 21 22 23 24 23 25 29 34 42 47 49 50 47 42 39 34 31 29 27 24 23 23 22 21 21 20 20 19 19
29 26 22 17 13 9 6 5 7 8 11 13 15 17 18 19 20 21 22 23 28 33 40 46 50 48 44 40 37 34 31 28 26 24 24 23 22 22 21 21 21 20 20
29 26 23 20 17 13 10 8 7 7 8 10 12 14 15 17 19 19 19 22 28 36 42 44 46 45 42 40 36 33 31 28 26 25 25 24 23 23 23 22 22 21 20
29 26 23 21 18 16 13 11 9 8 8 9 10 12 13 15 17 18 19 24 32 38 40 41 42 42 41 39 36 34 31 28 27 26 25 24 24 24 24 23 22 21 20
30 28 25 22 20 18 16 15 13 11 11 11 11 13 15 17 19 21 24 27 31 34 38 40 39 39 39 37 35 33 31 29 28 26 26 25 25 24 23 22 22 21 20
30 28 26 24 22 20 19 18 17 16 16 16 17 18 20 22 24 26 28 29 32 34 37 37 36 36 35 34 32 31 29 28 27 26 25 25 24 23 23 22 21 20 20
30 28 26 25 24 22 21 20 20 19 19 19 20 22 24 25 27 28 30 31 31 32 33 33 33 33 32 31 30 30 29 28 27 26 25 24 24 23 22 22 21 21 20
31 29 27 26 24 23 21 21 20 20 21 22 24 26 26 27 29 30 30 31 30 30 30 30 30 29 28 28 28 28 28 27 26 25 24 23 23 22 21 21 21 20 21
30 29 28 26 25 24 23 23 23 23 24 24 26 28 29 30 30 31 30 29 28 28 28 28 27 26 26 26 26 26 25 25 24 23 22 21 21 20 20 20 20 21 21
30 29 27 27 26 25 25 25 25 25 25 26 27 29 30 31 30 29 28 28 27 27 26 25 24 24 23 23 23 23 23 22 21 20 19 19 19 19 19 19 20 21 22
Wind_Direction
291 288 284 280 276 272 269 266 264 262 259 257 256 254 253 252 250 249 249 250 250 252 254 256 259 261 263 267 272 275 277 279 281 281 279 273 264 256 249 243 239 237 238
294 292 288 285 280 275 271 266 262 259 257 255 254 253 252 251 251 249 249 248 249 250 251 253 255 258 260 262 266 269 272 275 277 277 277 272 263 256 250 245 239 238 238
297 295 293 290 285 280 275 269 264 259 255 253 251 251 250 250 249 249 248 247 247 247 248 249 251 254 256 257 260 263 266 269 272 272 273 269 261 255 251 246 241 239 239
298 297 295 293 289 284 278 271 265 259 255 251 249 248 247 247 247 247 246 246 246 246 246 246 247 249 251 253 256 257 260 264 266 268 268 267 261 256 253 249 244 241 240
296 294 292 290 288 285 279 273 268 261 255 252 250 247 245 244 244 244 245 245 244 243 243 244 244 244 247 249 251 252 255 259 262 265 265 264 260 256 252 249 244 241 242
293 290 288 285 283 280 276 273 268 263 259 256 252 250 247 245 243 242 241 242 242 241 241 241 241 241 242 244 246 247 251 254 257 259 261 260 257 253 251 248 245 242 241
292 289 285 282 278 275 272 270 268 264 260 257 255 253 250 247 244 242 240 239 239 238 238 238 238 238 238 239 241 243 246 249 252 255 256 256 254 250 248 246 241 241 240
291 288 284 280 276 272 269 268 265 262 259 257 253 251 250 249 247 244 242 239 236 235 234 234 234 234 235 235 237 238 241 244 246 248 250 251 250 246 244 242 239 239 240
292 288 283 279 275 271 267 264 262 259 256 255 254 251 249 248 248 247 245 241 236 233 230 229 230 230 231 232 232 234 237 240 240 244 246 247 246 242 240 240 238 237 239
295 290 285 279 274 269 265 261 259 256 254 253 251 250 248 247 247 246 247 243 237 231 227 225 225 226 226 227 228 230 232 235 236 239 242 244 242 237 237 237 234 233 236
298 294 288 281 274 268 263 259 256 253 251 250 248 248 246 245 243 243 243 243 237 229 223 219 219 221 222 223 224 226 228 230 233 235 238 240 238 235 233 232 231 231 232
305 298 292 284 275 267 262 257 253 251 248 247 245 244 242 239 238 239 239 238 234 226 218 213 212 214 215 218 220 221 224 227 231 233 235 234 232 231 231 230 228 227 227
314 306 299 289 279 270 262 255 249 246 244 243 240 237 236 234 233 233 233 232 230 222 211 206 203 205 208 212 214 217 219 223 225 228 229 228 226 226 226 224 221 220 218
325 317 307 297 285 272 261 251 243 238 235 234 231 230 229 228 228 228 229 231 227 218 205 198 196 199 200 203 207 210 213 217 220 223 224 223 222 221 219 218 218 219 218
339 334 324 310 295 276 259 243 232 225 221 220 221 221 220 221 222 224 228 228 221 212 200 191 190 192 193 197 200 205 208 211 215 218 219 219 217 214 213 214 214 213 213
353 351 346 336 321 291 250 227 215 209 209 210 211 212 215 217 218 220 223 221 213 206 197 190 186 186 188 192 194 198 202 205 208 211 212 211 209 209 210 210 210 211 211
8 10 12 15 18 21 149 185 191 193 197 201 204 208 211 213 214 214 217 217 209 201 195 186 181 182 183 186 189 192 196 200 203 205 205 204 204 205 204 204 205 206 205
18 22 26 34 43 57 84 117 151 174 186 193 198 200 202 205 206 207 210 210 201 193 187 182 178 178 179 181 184 188 191 195 198 198 199 199 199 199 200 200 200 200 201
23 29 35 42 48 59 72 89 114 141 163 175 184 189 194 199 200 199 197 195 188 181 178 175 174 175 176 178 180 184 188 190 193 194 195 195 196 196 196 196 198 200 202
27 31 36 41 49 57 64 76 91 107 128 151 169 177 181 182 183 180 177 176 176 172 169 168 171 175 176 177 179 182 186 188 191 192 193 193 194 195 196 198 200 203 206
31 35 40 45 50 56 64 73 81 92 105 119 133 145 151 151 153 155 157 163 167 165 164 165 168 172 174 176 178 182 185 187 189 191 193 193 194 196 198 200 204 207 210
35 39 44 48 52 58 65 72 78 87 95 104 116 125 130 134 136 138 144 153 156 156 160 166 170 172 173 175 179 181 183 185 187 189 190 193 195 197 200 203 208 213 217
37 41 45 49 55 60 65 72 79 84 92 99 107 116 122 126 130 135 139 145 148 152 158 162 166 169 172 175 177 179 181 183 185 188 191 193 196 199 203 208 213 218 223
42 46 49 53 57 61 66 72 78 84 93 99 106 113 119 124 128 130 134 139 144 151 157 162 164 166 169 173 176 178 179 182 185 188 191 194 198 203 209 214 219 225 232
45 49 52 55 59 63 69 76 82 89 96 103 109 114 119 122 125 128 131 135 140 146 151 155 158 161 166 170 173 175 178 181 185 189 193 198 204 210 217 223 230 236 242
45 49 54 58 62 67 73 80 86 92 98 103 110 114 118 121 123 125 129 133 138 143 147 150 154 158 163 167 171 174 178 183 187 193 199 206 213 220 227 235 241 247 252
Height
5709 5707 5705 5703 5702 5702 5702 5703 5704 5706 5709 5711 5713 5716 5718 5721 5724 5727 5730 5733 5737 5740 5742 5745 5748 5750 5752 5754 5755 5756 5756 5756 5754 5752 5751 5750 5750 5751 5752 5754 5756 5759 5761
5684 5681 5679 5676 5675 5675 5675 5677 5679 5682 5685 5688 5692 5696 5699 5703 5706 5710 5715 5719 5723 5727 5730 5734 5737 5740 5743 5745 5747 5748 5749 5749 5748 5747 5746 5745 5745 5745 5747 5748 5750 5753 5755
5663 5659 5655 5652 5650 5649 5649 5649 5652 5655 5659 5663 5668 5672 5677 5682 5687 5692 5697 5702 5708 5712 5717 5721 5726 5729 5733 5735 5738 5740 5741 5742 5742 5742 5741 5739 5739 5740 5741 5742 5744 5747 5749
5647 5642 5638 5634 5631 5630 5628 5628 5628 5630 5633 5637 5642 5647 5653 5659 5665 5671 5678 5684 5691 5697 5703 5708 5713 5718 5722 5726 5729 5731 5733 5734 5735 5735 5735 5734 5734 5734 5735 5736 5738 5740 5743
5632 5627 5623 5620 5617 5615 5613 5612 5612 5612 5614 5616 5619 5624 5629 5635 5642 5649 5657 5665 5672 5680 5687 5694 5700 5705 5710 5715 5719 5722 5725 5727 5728 5728 5729 5729 5729 5729 5730 5731 5732 5734 5736
5618 5613 5608 5604 5602 5600 5599 5598 5598 5599 5599 5601 5603 5606 5609 5614 5620 5627 5635 5644 5653 5662 5671 5679 5686 5692 5698 5704 5709 5713 5716 5719 5721 5722 5722 5723 5723 5724 5724 5726 5727 5729 5731
5602 5596 5591 5588 5585 5584 5583 5583 5584 5584 5586 5587 5589 5592 5595 5598 5603 5608 5615 5624 5634 5644 5653 5662 5671 5679 5686 5692 5698 5703 5707 5710 5713 5715 5716 5717 5717 5718 5719 5720 5722 5724 5725
5582 5577 5572 5569 5567 5566 5566 5567 5568 5570 5571 5573 5576 5579 5582 5585 5589 5593 5599 5606 5615 5625 5635 5646 5656 5664 5673 5680 5687 5693 5698 5702 5705 5707 5709 5710 5712 5713 5714 5715 5716 5718 5720
5562 5556 5552 5548 5547 5547 5547 5549 5551 5554 5556 5559 5563 5566 5570 5573 5577 5581 5586 5592 5599 5608 5618 5629 5640 5650 5660 5668 5676 5682 5688 5693 5697 5700 5702 5704 5705 5707 5708 5710 5711 5713 5715
5541 5535 5531 5528 5526 5527 5528 5531 5534 5537 5541 5545 5549 5553 5557 5561 5565 5569 5574 5579 5585 5593 5603 5614 5625 5636 5646 5656 5664 5672 5679 5684 5689 5692 5695 5697 5699 5701 5702 5704 5705 5707 5709
5522 5516 5511 5508 5507 5507 5509 5513 5517 5521 5526 5530 5535 5540 5544 5549 5553 5558 5562 5567 5572 5579 5588 5599 5611 5622 5633 5644 5653 5662 5669 5676 5680 5685 5688 5690 5693 5695 5696 5698 5700 5703 5705
5504 5498 5494 5490 5489 5490 5492 5496 5500 5505 5511 5516 5521 5527 5532 5537 5542 5547 5552 5557 5562 5568 5576 5587 5598 5610 5622 5633 5643 5652 5660 5667 5673 5677 5681 5684 5687 5689 5691 5693 5695 5698 5700
5491 5484 5479 5476 5475 5476 5478 5481 5486 5491 5498 5503 5509 5515 5521 5526 5531 5537 5542 5547 5552 5558 5566 5576 5588 5600 5611 5622 5633 5643 5651 5659 5665 5670 5674 5678 5681 5683 5686 5688 5691 5693 5696
5481 5474 5469 5466 5465 5465 5467 5470 5474 5480 5487 5493 5499 5505 5511 5517 5522 5528 5533 5538 5543 5549 5557 5566 5578 5590 5601 5613 5624 5634 5643 5651 5658 5663 5668 5671 5675 5678 5681 5684 5686 5689 5692
5476 5468 5463 5460 5458 5458 5460 5463 5467 5472 5479 5485 5491 5497 5504 5509 5515 5520 5525 5529 5535 5540 5548 5557 5569 5581 5593 5605 5617 5627 5637 5645 5651 5657 5661 5665 5669 5673 5676 5679 5682 5685 5688
5475 5467 5461 5458 5456 5456 5458 5461 5464 5469 5474 5480 5486 5492 5498 5503 5508 5513 5517 5522 5526 5532 5540 5550 5562 5574 5587 5600 5611 5622 5631 5639 5645 5651 5656 5660 5664 5668 5672 5675 5678 5681 5685
5477 5470 5464 5460 5459 5458 5459 5461 5464 5468 5473 5478 5483 5488 5493 5498 5503 5507 5511 5515 5520 5526 5534 5545 5557 5570 5583 5596 5607 5617 5626 5633 5640 5646 5651 5655 5660 5664 5668 5671 5675 5678 5681
5483 5476 5471 5467 5464 5463 5463 5465 5467 5470 5473 5477 5481 5485 5489 5494 5498 5503 5507 5511 5516 5523 5531 5543 5555 5568 5581 5593 5603 5613 5622 5629 5635 5641 5646 5651 5656 5660 5664 5668 5672 5675 5678
5491 5484 5479 5475 5472 5470 5470 5470 5471 5472 5475 5477 5480 5484 5488 5491 5496 5500 5504 5509 5514 5522 5532 5543 5556 5568 5580 5591 5601 5610 5618 5625 5632 5638 5643 5648 5653 5657 5661 5665 5669 5672 5675
5499 5493 5488 5484 5480 5478 5477 5476 5476 5477 5478 5479 5481 5484 5487 5491 5495 5499 5504 5510 5517 5526 5536 5547 5558 5569 5580 5590 5600 5608 5616 5623 5629 5635 5640 5645 5650 5655 5659 5663 5666 5669 5672
5508 5502 5497 5493 5489 5487 5485 5483 5483 5482 5483 5483 5485 5487 5490 5493 5498 5502 5508 5515 5523 5531 5541 5551 5562 5572 5582 5591 5599 5607 5615 5621 5627 5633 5638 5643 5648 5652 5656 5660 5663 5666 5669
5517 5512 5507 5503 5499 5496 5494 5492 5491 5490 5490 5490 5491 5492 5495 5499 5503 5509 5515 5523 5530 5539 5548 5558 5567 5576 5585 5593 5600 5607 5614 5620 5626 5631 5637 5641 5646 5650 5654 5658 5661 5664 5666
5527 5521 5517 5512 5509 5506 5503 5501 5500 5499 5499 5499 5499 5501 5504 5508 5513 5519 5525 5532 5539 5547 5556 5564 5572 5579 5587 5594 5601 5607 5614 5619 5625 5631 5636 5640 5644 5648 5652 5655 5658 5660 5662
5537 5532 5527 5523 5519 5516 5513 5511 5510 5509 5508 5508 5510 5512 5515 5519 5524 5529 5535 5542 5549 5555 5563 5570 5577 5583 5590 5596 5602 5608 5614 5619 5625 5630 5634 5638 5642 5646 5649 5652 5654 5656 5657
5548 5543 5538 5534 5530 5527 5524 5522 5521 5520 5520 5520 5521 5523 5526 5530 5535 5540 5546 5551 5557 5563 5569 5575 5581 5587 5593 5599 5604 5610 5615 5620 5624 5629 5633 5637 5641 5644 5646 5648 5650 5651 5652
5559 5554 5549 5545 5541 5538 5536 5534 5533 5532 5532 5533 5534 5536 5539 5542 5546 5551 5556 5560 5566 5571 5576 5581 5587 5592 5597 5602 5606 5611 5616 5621 5625 5629 5632 5636 5638 5641 5643 5644 5645 5646 5647